[[{"header":{"parameterUnit":"m.s-1","parameterCategory":1,"la1":30.2991,"la2":30.254,"lo1":-89.0895,"lo2":-89.0444,"dy":0.0017,"dx":0.0017,"nx":28,"ny":28,"refTime":"2024-05-05T21:00:00:Z","depth":0,"parameterNumber":2,"parameterNumberName":"U-component_of_WINDS"},"data":[0,0,0,0,0,0,0,0,0,0,0,0,0,0,0,0,0,0,0,0,0,0,0,0,0,0,0,0,0,0,0,0,0,0,0,0,0,0,0,0,0,0,0,0,0,0,0,0,0,0,0,0,0,0,0,0,0,0,-2.281,-2.281,0,-2.2798,-2.2798,-2.2798,-2.2752,-2.2751,-2.275,-2.2749,-2.2738,-2.2739,-2.274,0,0,0,0,0,0,0,0,0,0,0,0,0,-2.2797,-2.2797,-2.281,-2.281,-2.281,-2.2798,-2.2798,-2.2798,-2.2752,-2.2751,-2.275,-2.2749,-2.2738,-2.2739,-2.274,0,0,0,0,0,0,0,0,0,0,0,0,0,-2.2796,-2.2797,-2.281,-2.2786,-2.2784,-2.2798,-2.2798,-2.2798,-2.2753,-2.2751,-2.275,-2.2748,-2.2738,-2.2739,-2.274,-2.2778,0,0,-2.2743,-2.2744,0,0,0,0,0,0,0,0,-2.2796,-2.2796,-2.279,-2.2788,-2.2785,-2.2775,-2.2789,-2.2791,-2.2753,-2.2765,-2.2749,-2.2747,-2.2752,-2.2752,-2.2753,-2.2777,-2.2777,-2.2743,-2.2744,-2.2744,-2.2745,0,0,0,0,0,0,0,-2.2796,-2.2796,-2.2806,-2.279,-2.2787,-2.2776,-2.2774,-2.2789,-2.2767,-2.2763,-2.276,-2.2759,-2.275,-2.2752,-2.2752,-2.2777,-2.2743,-2.2744,-2.2745,-2.2745,-2.2832,-2.2833,0,0,0,0,0,0,-2.2799,-2.2797,-2.2806,-2.2805,-2.2787,-2.2778,-2.2776,-2.278,-2.2767,-2.2763,-2.276,-2.2757,-2.2751,-2.2751,-2.2752,-2.2795,-2.2744,-2.2745,-2.2746,-2.283,-2.2832,-2.2834,0,0,0,0,0,0,-2.2799,-2.28,-2.2806,-2.28,-2.28,-2.278,-2.2785,-2.278,-2.2782,-2.2765,-2.2761,-2.2766,-2.275,-2.275,-2.2772,-2.2794,-2.2746,-2.2747,-2.2828,-2.2831,-2.2833,-2.2882,0,0,0,0,0,0,-2.2799,-2.2801,-2.2814,-2.2801,-2.2801,-2.2826,-2.2786,-2.2781,-2.2784,-2.2779,-2.2769,-2.2766,-2.2749,-2.277,-2.2773,-2.2795,-2.2747,-2.2826,-2.2829,-2.2832,-2.2879,-2.2886,-2.2893,0,0,0,0,0,-2.2798,-2.2829,-2.2815,-2.2816,-2.2817,-2.2827,-2.2827,-2.2806,-2.2786,-2.2799,-2.2789,-2.2766,-2.2792,-2.2773,-2.2775,-2.2798,-2.2824,-2.2828,-2.2832,-2.2876,-2.2885,-2.2893,0,0,0,0,0,0,-2.2846,-2.2827,-2.2811,-2.2838,-2.2835,-2.2819,-2.2836,-2.2817,-2.282,-2.2815,-2.279,-2.2788,-2.2813,-2.2808,-2.2787,-2.2834,-2.2804,-2.2809,-2.2837,-2.2845,-2.2852,-2.2853,-2.2748,0,0,0,0,0,-2.2859,-2.2869,-2.2852,-2.2877,-2.2876,-2.2857,-2.286,-2.2845,-2.284,-2.2839,-2.2829,-2.2827,-2.2834,-2.2839,-2.2845,-2.2878,-2.2875,-2.2895,-2.2902,-2.2908,-2.2912,-2.2929,-2.2938,-2.2846,-2.2846,-2.2846,0,0,-2.2888,-2.2878,-2.2886,-2.2886,-2.2882,-2.2893,-2.2856,-2.2869,-2.2877,-2.2841,-2.286,-2.2853,-2.2849,-2.2876,-2.2888,-2.2872,-2.2937,-2.2913,-2.2918,-2.2918,-2.2934,-2.2943,-2.295,-2.2849,-2.2848,-2.2848,0,0,-2.2944,-2.2938,-2.2959,-2.2955,-2.2948,-2.2935,-2.2941,-2.2929,-2.2922,-2.2941,-2.2915,-2.2925,-2.2938,-2.2936,-2.2936,-2.2993,-2.2973,-2.2996,-2.3033,-2.305,-2.3057,-2.3064,-2.3084,-2.3092,-2.3,-2.3,-2.3,0,-2.298,-2.2995,-2.2972,-2.2987,-2.2988,-2.2956,-2.2977,-2.2975,-2.2971,-2.2973,-2.2956,-2.2972,-2.2966,-2.2993,-2.3007,-2.3008,-2.3014,-2.2997,-2.3058,-2.3064,-2.307,-2.3089,-2.3097,-2.3003,-2.3003,-2.3002,-2.3002,0,-2.304,-2.305,-2.3068,-2.3064,-2.3068,-2.3086,-2.3066,-2.3072,-2.3057,-2.3046,-2.3066,-2.3058,-2.3062,-2.3068,-2.3053,-2.3092,-2.3083,-2.3062,-2.3032,-2.3082,-2.3099,-2.3106,-2.3007,-2.3006,-2.3005,-2.3005,0,0,-2.3126,-2.3109,-2.3116,-2.3114,-2.3105,-2.3113,-2.313,-2.3134,-2.314,-2.3139,-2.3152,-2.3165,-2.3146,-2.3146,-2.3131,-2.3146,-2.3192,-2.3124,-2.3123,-2.3137,-2.3236,-2.3251,-2.326,-2.3179,-2.318,-2.3181,-2.3236,0,-2.318,-2.3207,-2.3187,-2.3218,-2.3227,-2.3197,-2.3212,-2.3209,-2.3199,-2.3207,-2.3197,-2.3206,-2.318,-2.318,-2.3194,-2.3184,-2.3212,-2.3179,-2.3192,-2.3192,-2.3194,-2.3269,-2.3285,-2.3338,-2.3243,-2.3244,-2.3245,0,-2.3246,-2.3247,-2.3279,-2.3268,-2.3272,-2.3285,-2.3287,-2.3294,-2.329,-2.3282,-2.3284,-2.3264,-2.3281,-2.3251,-2.3274,-2.3253,-2.3257,-2.3253,-2.3254,-2.3254,-2.3221,-2.3271,-2.3354,-2.3362,-2.3255,-2.3255,-2.3254,0,-2.3306,-2.3316,-2.3336,-2.3335,-2.3323,-2.3333,-2.3329,-2.3323,-2.3326,-2.3328,-2.333,-2.3334,-2.3337,-2.3341,-2.3323,-2.3303,-2.3349,-2.3317,-2.3343,-2.3344,-2.3354,-2.3353,-2.3438,-2.3357,-2.3357,-2.3356,-2.3356,0,-2.3369,-2.3389,-2.3363,-2.3375,-2.3398,-2.3375,-2.3398,-2.339,-2.3386,-2.3397,-2.3371,-2.3382,-2.3359,-2.3368,-2.3355,-2.3376,-2.3377,-2.3372,-2.3368,-2.3374,-2.3375,-2.3376,-2.3372,-2.3358,-2.3358,-2.3358,-2.3357,0,-2.3439,-2.3422,-2.3442,-2.3429,-2.3426,-2.3443,-2.3432,-2.3444,-2.3432,-2.3447,-2.3449,-2.3432,-2.3441,-2.3424,-2.3432,-2.3423,-2.3452,-2.3443,-2.3454,-2.3451,-2.3477,-2.3475,-2.3566,-2.3576,-2.3489,-2.3489,-2.349,0,-2.348,-2.3495,-2.3484,-2.3489,-2.3486,-2.3494,-2.3498,-2.3476,-2.3481,-2.3477,-2.3489,-2.3496,-2.3501,-2.3517,-2.3506,-2.3511,-2.3502,-2.3533,-2.3503,-2.3508,-2.3502,-2.3502,-2.3503,-2.354,-2.3541,-2.3542,-2.3542,0,-2.3555,-2.3546,-2.3551,-2.3554,-2.3558,-2.3559,-2.3559,-2.3565,-2.3542,-2.3548,-2.3557,-2.3561,-2.3568,-2.3575,-2.3578,-2.3574,-2.3555,-2.3552,-2.3558,-2.3564,-2.357,-2.3567,-2.3471,-2.355,-2.3549,-2.3549,-2.3548,-2.3548,-2.3612,-2.3624,-2.3618,-2.3625,-2.3622,-2.3622,-2.3632,-2.3622,-2.3629,-2.3632,-2.3619,-2.3631,-2.3627,-2.3629,-2.3627,-2.3637,-2.3623,-2.3632,-2.3634,-2.3637,-2.3641,-2.3569,-2.3637,-2.3637,-2.3637,-2.3637,-2.3637,0,-2.3686,-2.368,-2.3687,-2.3686,-2.3692,-2.3672,-2.3671,-2.3677,-2.3687,-2.3685,-2.369,-2.37,-2.3707,-2.3697,-2.3702,-2.3712,-2.3703,-2.3714,-2.3713,-2.3713,-2.3653,-2.3647,-2.3721,-2.3721,-2.3721,-2.3721,-2.3721,-2.3721,-2.3725,-2.3744,-2.3734,-2.3752,-2.3747,-2.3758,-2.3758,-2.3759,-2.3756,-2.3769,-2.3775,-2.3767,-2.3762,-2.3767,-2.3773,-2.3769,-2.3773,-2.3787,-2.3781,-2.3725,-2.3717,-2.3709,-2.3703,-2.3788,-2.3788,-2.3839,-2.384,-2.384]},{"header":{"parameterUnit":"m.s-1","parameterCategory":1,"la1":30.2991,"la2":30.254,"lo1":-89.0895,"lo2":-89.0444,"dy":0.0017,"dx":0.0017,"nx":28,"ny":28,"refTime":"2024-05-05T21:00:00:Z","depth":0,"parameterNumber":3,"parameterNumberName":"V-component_of_WINDS"},"data":[0,0,0,0,0,0,0,0,0,0,0,0,0,0,0,0,0,0,0,0,0,0,0,0,0,0,0,0,0,0,0,0,0,0,0,0,0,0,0,0,0,0,0,0,0,0,0,0,0,0,0,0,0,0,0,0,0,0,4.3881,4.3881,0,4.388,4.388,4.388,4.3823,4.3821,4.382,4.3818,4.3817,4.3818,4.382,0,0,0,0,0,0,0,0,0,0,0,0,0,4.3834,4.3836,4.3881,4.3881,4.3881,4.388,4.388,4.388,4.3823,4.3821,4.3819,4.3818,4.3816,4.3818,4.382,0,0,0,0,0,0,0,0,0,0,0,0,0,4.3846,4.3836,4.3881,4.3853,4.385,4.388,4.388,4.388,4.3823,4.3821,4.3819,4.3817,4.3816,4.3818,4.382,4.3877,0,0,4.3826,4.3827,0,0,0,0,0,0,0,0,4.3846,4.3848,4.3857,4.3855,4.3852,4.3849,4.3863,4.3879,4.3824,4.3834,4.3818,4.3816,4.3829,4.383,4.3835,4.3877,4.3877,4.3826,4.3827,4.3828,4.3829,0,0,0,0,0,0,0,4.3845,4.3848,4.3881,4.3857,4.3854,4.384,4.3839,4.3866,4.3844,4.3833,4.3828,4.3829,4.3828,4.3833,4.3834,4.3877,4.3826,4.3828,4.3829,4.383,4.3965,4.3968,0,0,0,0,0,0,4.3848,4.3847,4.3881,4.3881,4.3843,4.3843,4.3842,4.3852,4.3844,4.384,4.3831,4.3826,4.3831,4.3832,4.3834,4.39,4.3828,4.383,4.3831,4.3963,4.3966,4.3968,0,0,0,0,0,0,4.3847,4.3852,4.3881,4.3863,4.3866,4.3846,4.3858,4.3854,4.3859,4.3842,4.3838,4.3841,4.3829,4.3831,4.3867,4.3899,4.3831,4.3833,4.396,4.3964,4.3967,4.4033,0,0,0,0,0,0,4.3846,4.3852,4.3873,4.3864,4.3867,4.3914,4.386,4.3855,4.3863,4.3857,4.385,4.3847,4.3827,4.3864,4.3869,4.3901,4.3834,4.3957,4.3962,4.3966,4.4028,4.4039,4.4048,0,0,0,0,0,4.3845,4.3892,4.3875,4.3879,4.3893,4.3916,4.3917,4.3894,4.3865,4.3887,4.3876,4.3847,4.3895,4.3868,4.3873,4.3906,4.3955,4.396,4.3966,4.4024,4.4037,4.4047,0,0,0,0,0,0,4.3905,4.389,4.3871,4.3916,4.3918,4.3906,4.3932,4.3908,4.3918,4.3912,4.3882,4.3882,4.3922,4.3917,4.3888,4.3961,4.392,4.3927,4.3962,4.3974,4.3984,4.3984,4.3836,0,0,0,0,0,4.3924,4.3944,4.3929,4.3971,4.3973,4.3953,4.3962,4.3943,4.3944,4.3944,4.3936,4.3937,4.3952,4.3963,4.3976,4.4027,4.4025,4.4052,4.4062,4.407,4.4077,4.4103,4.4115,4.3986,4.3986,4.3986,0,0,4.3963,4.3957,4.3971,4.3983,4.3982,4.4003,4.3954,4.3978,4.3993,4.3948,4.398,4.3975,4.3974,4.4018,4.4036,4.4015,4.4112,4.4077,4.4084,4.4086,4.411,4.4122,4.4133,4.399,4.3989,4.3988,0,0,4.4045,4.4042,4.4076,4.4077,4.4076,4.4062,4.407,4.4062,4.4057,4.4089,4.4056,4.4073,4.41,4.4101,4.4105,4.4188,4.4161,4.4193,4.4244,4.427,4.428,4.4289,4.4319,4.433,4.4199,4.4199,4.4199,0,4.4093,4.4123,4.4097,4.4124,4.413,4.409,4.4124,4.4126,4.4129,4.4134,4.4111,4.4144,4.4141,4.4184,4.4204,4.4208,4.4217,4.4193,4.4281,4.429,4.4298,4.4325,4.4336,4.4203,4.4202,4.4202,4.4201,0,4.4183,4.4204,4.4232,4.4237,4.4246,4.4276,4.4255,4.4267,4.4248,4.4237,4.4271,4.4266,4.4277,4.4286,4.4268,4.4327,4.4314,4.4286,4.4244,4.4314,4.434,4.435,4.4208,4.4207,4.4206,4.4205,0,0,4.4303,4.4293,4.4303,4.4305,4.4301,4.4317,4.4345,4.4357,4.4368,4.4372,4.4395,4.4419,4.4393,4.4398,4.4379,4.4402,4.4468,4.4372,4.4371,4.439,4.4533,4.4554,4.4566,4.445,4.4452,4.4454,4.4533,0,4.4382,4.443,4.4408,4.4458,4.4478,4.444,4.4465,4.4465,4.4456,4.4471,4.446,4.4477,4.4442,4.4445,4.4466,4.4455,4.4496,4.4449,4.4472,4.4473,4.4473,4.4579,4.4602,4.4676,4.4542,4.4544,4.4545,0,4.4481,4.4489,4.4542,4.4534,4.4541,4.4564,4.4572,4.4587,4.4587,4.4578,4.4584,4.456,4.4587,4.4546,4.4583,4.4552,4.4559,4.4556,4.4558,4.4559,4.4513,4.4584,4.47,4.4711,4.4561,4.4559,4.4558,0,4.4563,4.4587,4.4622,4.4624,4.4616,4.4633,4.463,4.4628,4.4636,4.4643,4.4648,4.4659,4.4665,4.4673,4.4653,4.4624,4.4693,4.465,4.4687,4.4688,4.4703,4.4703,4.4822,4.4708,4.4708,4.4708,4.4708,0,4.4654,4.4688,4.4659,4.468,4.4717,4.469,4.4728,4.4721,4.4719,4.4738,4.4706,4.4725,4.4697,4.4713,4.4697,4.473,4.4733,4.4727,4.4722,4.473,4.4731,4.4735,4.4729,4.4711,4.471,4.471,4.4709,0,4.4752,4.4734,4.477,4.4759,4.4757,4.4785,4.4776,4.4795,4.4783,4.4808,4.4812,4.4794,4.4811,4.4791,4.4807,4.4796,4.4842,4.483,4.4842,4.4839,4.4877,4.4874,4.5003,4.5019,4.4895,4.4896,4.4897,0,4.4812,4.4837,4.4829,4.484,4.4839,4.4857,4.4865,4.484,4.4849,4.4851,4.487,4.4884,4.4895,4.4924,4.4912,4.4924,4.4912,4.4956,4.4913,4.492,4.4913,4.4912,4.4914,4.4965,4.4967,4.4968,4.4969,0,4.4919,4.4909,4.4922,4.4932,4.4942,4.4949,4.4953,4.4964,4.4937,4.495,4.4967,4.4975,4.4991,4.5006,4.5015,4.5012,4.4987,4.4983,4.4992,4.5,4.5006,4.5003,4.4866,4.498,4.4979,4.4978,4.4977,4.4977,4.5,4.502,4.5018,4.5033,4.5034,4.5038,4.5056,4.5046,4.506,4.5071,4.5055,4.5077,4.5076,4.5084,4.5085,4.5101,4.5082,4.5095,4.5099,4.5102,4.5108,4.5004,4.5103,4.5102,4.5102,4.5102,4.5101,0,4.5105,4.5102,4.5116,4.5123,4.5135,4.511,4.5113,4.5125,4.5145,4.5145,4.5156,4.5176,4.519,4.5179,4.5191,4.5207,4.5195,4.5211,4.5209,4.5209,4.5125,4.5115,4.522,4.522,4.522,4.522,4.522,4.522,4.5162,4.5195,4.5185,4.5218,4.5214,4.5235,4.5239,4.5243,4.5244,4.5267,4.5279,4.5271,4.5268,4.5279,4.5291,4.5287,4.5293,4.5313,4.5305,4.5227,4.5215,4.5204,4.5195,4.5315,4.5315,4.5388,4.5389,4.539]}]]